Location: Recife
(8.0585°S, 34.8848°W)
Time: 13:35:23
(UTC-03:00)

Injun/Solrad 3 - Pass Details

Date: 23 April 2026
Orbit: 868 x 988 km, 66.8° (Epoch: 12 May)

Event Time Altitude Azimuth Distance (km) Brightness Sun altitude
Rises 07:41:39 0° 309° (NW) 3,679 10.8 32.4°
Reaches altitude 10° 07:44:56 10° 293° (WNW) 2,727 10.1 33.2°
Maximum altitude 07:49:28 20° 248° (WSW) 2,064 9.4 34.3°
Drops below altitude 10° 07:53:59 10° 202° (SSW) 2,696 10.1 35.3°
Sets 07:57:14 0° 185° (S) 3,624 10.8 36.0°
